Wind_Speed
35 35 35 36 36 37 37 38 39 39 40 40 39 40 40 40 39 39 39 38 38 39 38 38 38 37 36 38 38 37 36 35 34 33 32 30 28 27
35 36 36 37 37 38 38 39 40 40 40 41 41 41 42 41 40 40 40 40 39 39 39 39 39 39 37 38 38 38 38 36 35 34 32 31 29 28
35 36 36 37 38 39 39 40 40 41 41 42 43 43 42 42 41 42 42 41 41 40 40 39 39 40 40 39 39 39 38 38 37 35 33 31 30 29
35 36 37 38 39 40 40 41 41 41 42 42 43 44 44 43 42 43 43 41 42 42 41 40 40 40 41 41 40 40 39 38 37 36 34 32 31 29
35 36 37 38 39 40 41 41 42 42 41 42 43 44 44 44 43 43 43 43 42 42 42 42 41 40 41 42 42 41 40 39 38 37 35 33 31 30
34 35 36 38 39 40 41 41 42 42 43 43 43 44 45 44 45 44 44 44 44 43 43 43 42 42 43 43 43 42 41 40 39 38 36 34 32 30
33 34 35 37 38 39 40 41 42 43 43 44 44 44 44 44 45 45 44 44 45 45 44 45 44 44 44 44 43 43 42 41 40 39 38 35 33 31
32 32 33 34 35 37 39 40 42 42 42 43 44 45 45 45 45 45 45 44 45 46 45 45 45 44 45 46 45 44 42 42 41 39 38 36 34 33
32 32 32 33 34 35 36 38 40 41 42 42 43 44 44 45 45 45 46 45 45 45 46 45 44 45 46 46 45 45 44 44 42 40 39 37 35 34
31 31 31 32 33 34 35 36 38 39 41 42 43 44 45 45 45 45 45 45 44 45 45 45 45 45 46 47 46 46 45 45 44 42 40 39 38 36
30 30 30 31 32 33 34 35 36 38 40 41 42 43 46 46 47 46 45 45 44 43 45 45 46 46 45 46 47 47 46 46 45 43 42 40 39 38
29 29 28 29 30 31 32 33 34 36 39 40 41 42 44 46 46 46 44 43 43 43 44 44 44 45 46 47 47 47 48 47 46 45 43 42 41 40
29 28 28 28 28 29 30 31 32 34 36 37 39 41 43 44 45 46 45 44 44 43 43 44 44 44 45 46 47 47 48 48 47 46 44 43 42 41
28 27 27 26 26 25 26 28 29 30 32 34 36 38 40 41 43 45 45 44 44 44 43 43 44 44 44 45 45 46 48 49 48 47 46 45 44 42
27 26 25 24 23 22 23 24 26 27 28 31 33 34 36 37 40 43 45 44 45 45 44 44 43 43 44 44 44 45 46 47 48 48 48 46 45 44
26 25 24 23 21 20 20 20 22 23 25 27 29 32 34 35 38 41 43 44 44 44 44 44 44 44 42 43 43 44 45 46 47 48 47 47 45 44
25 24 22 21 19 18 18 17 18 20 22 24 26 28 31 33 35 37 40 42 43 43 43 44 44 43 43 42 42 44 44 44 44 45 46 46 45 45
25 23 21 19 17 15 15 15 16 16 18 22 24 27 28 30 32 34 37 39 40 41 42 42 43 42 42 42 42 42 42 43 44 44 45 44 44 43
23 22 20 18 16 14 13 13 13 14 16 19 22 24 27 28 29 31 34 36 37 39 40 40 41 41 41 40 41 41 41 42 43 43 43 44 43 42
22 21 19 17 15 13 12 11 12 13 15 17 20 22 24 26 28 30 31 33 35 36 38 39 39 40 40 39 40 40 40 40 41 42 42 43 43 42
22 20 18 16 14 12 11 10 10 11 13 15 18 19 21 23 26 29 31 32 34 35 36 37 38 39 39 39 39 40 40 39 39 40 41 41 41 41
20 19 17 15 13 12 11 10 9 9 11 13 16 18 20 22 24 26 29 30 31 33 35 36 37 38 39 38 38 38 39 40 41 40 41 41 41 40
19 18 17 15 13 11 10 8 7 8 9 11 14 17 19 20 23 25 27 28 29 31 32 33 35 37 38 38 36 36 37 38 39 40 41 41 41 41
Wind_Direction
271 268 265 263 261 259 256 254 252 250 249 249 248 247 245 244 242 242 240 239 239 238 236 235 235 235 234 233 233 232 231 231 232 233 235 237 240 242
271 268 265 263 262 259 258 255 253 251 250 249 249 248 247 245 243 242 241 239 238 239 238 236 234 233 233 232 232 231 231 231 231 232 234 236 239 241
272 269 266 264 261 259 257 256 254 252 250 249 248 248 247 245 243 242 241 239 237 237 237 236 234 233 232 231 231 230 230 230 229 231 233 236 237 239
274 270 267 264 262 260 258 256 254 252 250 249 248 246 246 245 244 241 240 238 236 236 235 235 234 233 231 230 229 229 229 229 229 230 231 234 236 237
277 273 269 266 263 261 259 256 254 251 250 248 247 245 245 244 243 241 240 238 236 235 234 234 234 232 230 228 229 228 228 229 229 229 230 231 233 234
280 276 271 267 264 261 259 256 253 251 249 248 246 245 243 243 242 241 239 237 236 235 234 233 233 232 229 227 227 227 228 228 227 227 228 229 230 231
284 279 273 268 264 261 258 255 253 251 249 247 246 244 243 242 241 240 239 237 235 235 233 232 232 231 229 227 227 227 227 226 226 226 227 228 228 229
288 283 277 271 265 261 258 255 253 249 248 246 245 244 243 241 240 239 237 236 235 234 233 231 231 231 229 227 226 225 226 225 224 225 225 226 226 227
290 285 279 273 267 262 259 255 253 250 247 245 244 243 242 240 238 237 235 234 234 233 232 231 230 229 226 225 225 224 225 223 222 223 224 225 225 226
294 287 281 276 270 265 261 257 254 250 248 245 243 241 239 238 237 235 234 233 232 231 231 231 230 228 226 224 223 222 224 221 221 222 223 224 224 225
299 291 285 279 273 268 263 258 254 250 247 245 242 239 237 236 235 233 232 231 230 230 229 230 231 229 225 222 222 221 221 220 219 221 222 224 224 225
302 296 290 283 276 271 267 261 256 251 248 246 242 238 234 233 232 231 230 229 228 228 228 228 228 227 224 221 221 221 220 220 220 221 222 223 224 224
307 301 295 288 281 275 269 263 258 254 249 246 242 238 235 232 230 229 228 227 226 225 226 226 226 227 224 221 220 220 220 220 220 220 221 222 223 224
312 307 301 295 286 279 272 265 258 254 249 244 241 237 234 232 230 228 226 225 224 224 224 224 225 225 224 222 220 220 220 220 220 220 221 222 223 224
317 312 306 299 291 283 276 267 259 252 247 242 238 233 230 228 227 227 224 224 223 223 223 223 222 222 222 221 220 220 220 221 220 220 221 222 223 223
320 316 311 304 295 287 279 271 261 252 245 239 235 232 229 227 225 225 225 224 222 222 222 222 222 222 221 219 218 219 220 220 220 220 221 221 222 224
324 321 316 310 301 291 281 272 263 253 245 238 233 229 227 225 224 224 224 223 222 221 221 222 223 223 221 220 219 218 219 220 220 220 220 221 223 224
328 326 323 317 308 296 285 273 266 255 244 235 231 228 225 224 222 221 221 221 222 221 220 221 221 223 222 220 220 219 220 222 223 223 223 223 224 226
331 328 325 322 314 303 291 279 266 254 242 235 230 227 225 223 220 219 218 218 219 218 218 218 220 222 222 222 221 220 221 221 222 222 223 223 224 227
332 331 327 323 318 308 298 284 269 255 242 233 229 224 222 221 217 216 216 216 216 217 217 218 219 220 222 222 222 222 222 221 221 221 223 225 225 226
331 332 329 326 320 314 306 291 271 254 239 231 227 224 221 217 216 215 214 214 215 216 216 217 217 219 221 222 221 221 222 222 221 222 223 226 228 229
329 329 328 325 320 314 307 296 273 252 236 230 226 223 218 215 213 212 211 212 212 214 215 216 216 218 221 222 222 222 221 223 223 225 225 227 228 228
333 331 328 324 320 313 306 297 274 253 240 230 221 219 217 212 210 209 208 209 210 212 214 215 217 217 218 220 223 225 224 223 223 225 226 226 225 226
Height
5761 5762 5762 5763 5765 5767 5769 5772 5775 5778 5782 5784 5787 5791 5795 5798 5803 5807 5811 5815 5820 5824 5829 5834 5839 5844 5849 5854 5859 5864 5869 5874 5878 5882 5886 5890 5893 5896
5751 5752 5752 5753 5754 5756 5758 5761 5764 5767 5770 5774 5777 5780 5784 5788 5793 5797 5801 5806 5810 5815 5820 5825 5830 5836 5840 5846 5851 5856 5861 5866 5871 5875 5880 5884 5887 5890
5740 5741 5741 5742 5743 5745 5747 5749 5752 5755 5758 5762 5765 5768 5772 5777 5782 5787 5791 5795 5801 5806 5811 5816 5821 5827 5832 5837 5843 5848 5854 5859 5864 5869 5873 5877 5881 5884
5729 5729 5729 5730 5731 5732 5734 5737 5739 5742 5746 5750 5753 5757 5761 5765 5771 5776 5780 5785 5790 5796 5801 5806 5812 5817 5823 5829 5834 5840 5846 5851 5856 5861 5866 5870 5874 5878
5718 5717 5717 5718 5719 5720 5721 5724 5727 5730 5733 5737 5741 5745 5749 5754 5759 5764 5769 5774 5780 5786 5791 5797 5802 5808 5814 5820 5826 5832 5838 5843 5848 5853 5859 5863 5867 5871
5706 5705 5705 5705 5706 5707 5708 5710 5713 5717 5720 5724 5729 5732 5737 5742 5747 5752 5758 5763 5769 5775 5781 5787 5792 5798 5804 5811 5817 5823 5829 5835 5840 5846 5851 5856 5860 5865
5695 5693 5692 5692 5693 5693 5695 5697 5700 5703 5707 5711 5716 5720 5724 5729 5735 5740 5746 5752 5758 5763 5770 5777 5783 5788 5794 5801 5808 5814 5821 5826 5832 5838 5844 5849 5854 5858
5684 5682 5680 5680 5680 5680 5682 5683 5686 5690 5694 5698 5702 5707 5712 5717 5722 5728 5734 5741 5747 5754 5759 5765 5771 5778 5785 5791 5798 5805 5811 5818 5824 5830 5836 5841 5846 5851
5674 5671 5669 5668 5668 5668 5669 5670 5673 5675 5680 5684 5689 5694 5699 5705 5710 5716 5722 5728 5735 5741 5748 5754 5760 5767 5774 5781 5788 5795 5802 5808 5815 5821 5827 5833 5839 5844
5663 5660 5658 5656 5656 5656 5657 5658 5660 5663 5666 5671 5676 5681 5685 5691 5697 5704 5710 5717 5724 5730 5737 5744 5750 5757 5764 5771 5778 5785 5792 5799 5806 5813 5819 5825 5831 5837
5653 5650 5648 5646 5644 5644 5645 5647 5648 5650 5653 5657 5662 5667 5672 5679 5685 5692 5699 5706 5713 5720 5726 5733 5740 5747 5753 5760 5767 5775 5782 5789 5797 5804 5811 5817 5823 5829
5645 5641 5638 5636 5634 5633 5633 5634 5636 5638 5641 5644 5649 5654 5659 5666 5673 5681 5688 5695 5702 5709 5716 5723 5730 5737 5743 5750 5758 5765 5773 5780 5788 5795 5802 5809 5815 5821
5636 5632 5628 5626 5624 5623 5623 5623 5624 5626 5629 5632 5636 5641 5647 5654 5661 5669 5677 5684 5692 5700 5706 5713 5720 5727 5734 5741 5748 5756 5763 5771 5779 5786 5793 5800 5807 5813
5628 5624 5620 5617 5615 5614 5613 5613 5614 5615 5618 5621 5625 5630 5636 5643 5650 5657 5665 5673 5681 5689 5696 5703 5711 5718 5725 5732 5739 5746 5754 5762 5770 5777 5784 5791 5798 5805
5622 5617 5613 5609 5607 5605 5604 5604 5605 5606 5609 5612 5616 5621 5627 5633 5639 5646 5654 5663 5671 5679 5686 5694 5701 5708 5715 5723 5730 5737 5745 5753 5760 5768 5775 5782 5789 5796
5616 5611 5607 5603 5600 5598 5597 5597 5597 5599 5601 5604 5608 5612 5617 5623 5630 5637 5644 5652 5661 5669 5677 5684 5691 5698 5706 5713 5721 5729 5736 5744 5751 5758 5766 5773 5780 5787
5610 5605 5601 5597 5594 5592 5591 5591 5591 5592 5594 5596 5600 5604 5609 5615 5621 5628 5635 5643 5651 5660 5668 5675 5682 5689 5697 5704 5712 5720 5727 5735 5742 5749 5757 5764 5771 5778
5605 5601 5596 5593 5590 5588 5586 5586 5586 5586 5588 5590 5594 5598 5603 5608 5614 5620 5627 5635 5642 5651 5659 5667 5674 5682 5689 5696 5704 5711 5718 5726 5733 5740 5748 5755 5762 5768
5602 5597 5593 5589 5586 5584 5583 5582 5582 5582 5584 5586 5589 5593 5597 5602 5607 5613 5620 5627 5635 5643 5651 5658 5666 5674 5681 5689 5696 5703 5710 5717 5724 5732 5739 5746 5752 5759
5599 5594 5590 5587 5584 5581 5580 5578 5578 5578 5580 5582 5585 5588 5592 5597 5602 5608 5614 5621 5628 5636 5643 5651 5659 5666 5674 5681 5688 5695 5702 5709 5716 5723 5730 5736 5743 5749
5596 5591 5587 5584 5581 5579 5577 5576 5575 5575 5576 5578 5581 5584 5588 5592 5597 5603 5609 5615 5622 5629 5637 5644 5652 5659 5666 5673 5681 5687 5694 5701 5708 5715 5721 5728 5734 5740
5593 5589 5585 5582 5579 5577 5575 5573 5572 5573 5574 5575 5578 5581 5584 5588 5593 5598 5604 5610 5617 5624 5631 5637 5644 5651 5659 5666 5673 5680 5686 5693 5700 5706 5713 5720 5726 5732
5590 5587 5583 5580 5577 5575 5573 5572 5571 5571 5572 5573 5575 5578 5581 5585 5589 5594 5600 5606 5612 5618 5624 5631 5637 5645 5651 5659 5665 5672 5678 5684 5691 5698 5705 5711 5717 5723